Location: Keewatin
(47.4004°N, 93.0827°W)
Time: 21:31:53
(UTC+00:00)

KKS-1 - Pass Details

Date: 01 March 2020
Orbit: 637 x 650 km, 98.3° (Epoch: 09 April)

Event Time Altitude Azimuth Distance (km) Brightness Sun altitude
Rises 11:56:39 0° 127° (SE) 2,944 ? -10.1°
Reaches altitude 10° 11:59:15 10° 113° (ESE) 2,037 ? -9.6°
Maximum altitude 12:02:38 22° 63° (ENE) 1,410 ? -9.1°
Drops below altitude 10° 12:06:01 10° 13° (NNE) 2,043 ? -8.5°
Sets 12:08:37 0° 358° (N) 2,955 ? -8.1°
